[[{"header":{"parameterUnit":"m.s-1","parameterCategory":1,"la1":30.2991,"la2":30.254,"lo1":-89.0895,"lo2":-89.0444,"dy":0.0017,"dx":0.0017,"nx":28,"ny":28,"refTime":"2025-03-21T09:00:00:Z","depth":0,"parameterNumber":2,"parameterNumberName":"U-component_of_WINDS"},"data":[0,0,0,0,0,0,0,0,0,0,0,0,0,0,0,0,0,0,0,0,0,0,0,0,0,0,0,0,0,0,0,0,0,0,0,0,0,0,0,0,0,0,0,0,0,0,0,0,0,0,0,0,0,0,0,0,0,0,4.6207,4.6208,0,4.6303,4.6304,4.6305,4.6248,4.6245,4.6242,4.6239,4.6334,4.6339,4.6344,0,0,0,0,0,0,0,0,0,0,0,0,0,4.5966,4.5971,4.6207,4.6208,4.6209,4.6303,4.6304,4.6306,4.6248,4.6245,4.6241,4.6238,4.6332,4.6338,4.6344,0,0,0,0,0,0,0,0,0,0,0,0,0,4.6067,4.5973,4.6207,4.6192,4.6192,4.6303,4.6304,4.6306,4.6249,4.6245,4.624,4.6237,4.633,4.6337,4.6345,4.6475,0,0,4.6368,4.6372,0,0,0,0,0,0,0,0,4.6062,4.6076,4.6193,4.6193,4.6193,4.6259,4.6254,4.6363,4.625,4.6227,4.6239,4.6235,4.6312,4.6321,4.6348,4.6479,4.6483,4.6369,4.6374,4.6377,4.6379,0,0,0,0,0,0,0,4.6055,4.6072,4.6245,4.6195,4.6195,4.6178,4.6188,4.6274,4.6291,4.6229,4.6225,4.6237,4.6311,4.6341,4.635,4.6485,4.6369,4.6376,4.638,4.6383,4.6721,4.6725,0,0,0,0,0,0,4.605,4.6066,4.6242,4.6248,4.6116,4.6186,4.6197,4.6242,4.629,4.6294,4.6241,4.6234,4.633,4.6341,4.6353,4.6503,4.6377,4.6384,4.6388,4.6716,4.6722,4.6726,0,0,0,0,0,0,4.6045,4.6066,4.6238,4.6156,4.6177,4.6195,4.6246,4.6246,4.6276,4.6299,4.6301,4.6268,4.6327,4.6342,4.6444,4.6505,4.6387,4.6394,4.6711,4.6718,4.6724,4.6807,0,0,0,0,0,0,4.6038,4.6065,4.6116,4.6158,4.6181,4.633,4.625,4.6251,4.6289,4.6282,4.6326,4.6329,4.6325,4.6433,4.6451,4.6514,4.64,4.6706,4.6714,4.6722,4.6799,4.6816,4.683,0,0,0,0,0,4.603,4.6136,4.6119,4.614,4.6246,4.6334,4.6347,4.6341,4.6295,4.6345,4.6359,4.6327,4.6497,4.6444,4.6464,4.653,4.6702,4.6712,4.6721,4.6792,4.6812,4.683,0,0,0,0,0,0,4.61,4.6141,4.6123,4.6246,4.6287,4.6324,4.6387,4.6364,4.6418,4.6408,4.6398,4.6408,4.6513,4.6532,4.6472,4.6655,4.6591,4.6606,4.6638,4.6658,4.6673,4.6664,4.6407,0,0,0,0,0,4.6131,4.62,4.6231,4.6337,4.6358,4.6369,4.6407,4.6399,4.644,4.6457,4.6479,4.6519,4.658,4.6621,4.6679,4.6803,4.6808,4.6858,4.6873,4.6886,4.6897,4.6958,4.6978,4.6759,4.6759,4.6759,0,0,4.6193,4.6224,4.6268,4.6352,4.6382,4.6451,4.6384,4.6461,4.6511,4.6468,4.6564,4.6582,4.6625,4.6737,4.6787,4.6756,4.6959,4.6899,4.6909,4.6913,4.697,4.6991,4.7009,4.6766,4.6764,4.6763,0,0,4.6341,4.6374,4.6462,4.6494,4.6541,4.6547,4.6568,4.6608,4.6618,4.6715,4.6683,4.6741,4.6849,4.6879,4.6909,4.7065,4.7035,4.7085,4.7165,4.7224,4.7241,4.7256,4.7306,4.7325,4.7097,4.7097,4.7097,0,4.6411,4.6516,4.6511,4.6589,4.6624,4.6589,4.6676,4.6707,4.6771,4.6794,4.6759,4.689,4.6918,4.7033,4.707,4.7098,4.7118,4.7078,4.724,4.7255,4.7269,4.7316,4.7336,4.7102,4.7101,4.7101,4.71,0,4.6598,4.667,4.6736,4.6797,4.6841,4.6924,4.6927,4.6972,4.696,4.6968,4.7064,4.7096,4.7157,4.7185,4.7175,4.7298,4.7276,4.7241,4.7176,4.7295,4.7339,4.7358,4.7109,4.7108,4.7106,4.7105,0,0,4.6792,4.6848,4.6871,4.6896,4.6945,4.6999,4.7079,4.7139,4.7175,4.722,4.7282,4.7373,4.7339,4.7373,4.7365,4.7418,4.7533,4.7376,4.7376,4.7399,4.7664,4.7686,4.7708,4.7515,4.7519,4.7522,4.7658,0,4.6938,4.7077,4.7073,4.7201,4.7265,4.7232,4.73,4.7335,4.7345,4.7399,4.741,4.7472,4.7426,4.7445,4.7496,4.7508,4.7585,4.7499,4.7569,4.7572,4.7554,4.7732,4.7757,4.7884,4.7676,4.7679,4.7681,0,4.7127,4.7177,4.7311,4.7346,4.7372,4.7434,4.7486,4.754,4.7578,4.7581,4.7617,4.76,4.7677,4.7613,4.7715,4.7657,4.7685,4.7695,4.77,4.7702,4.763,4.7734,4.7925,4.7942,4.7709,4.7707,4.7705,0,4.7247,4.7349,4.7441,4.7464,4.7508,4.7551,4.7571,4.7605,4.7641,4.7687,4.7708,4.7763,4.7792,4.7833,4.7829,4.7784,4.7931,4.7869,4.7932,4.7932,4.7961,4.7958,4.8154,4.7988,4.7988,4.7988,4.7987,0,4.7408,4.749,4.7495,4.7551,4.764,4.7634,4.7722,4.7738,4.7768,4.7823,4.78,4.7852,4.7847,4.7899,4.7898,4.7979,4.7994,4.7995,4.7993,4.7995,4.7994,4.801,4.7999,4.7993,4.7992,4.7991,4.799,0,4.7556,4.7564,4.766,4.7694,4.7704,4.7768,4.7795,4.7846,4.7854,4.7925,4.7941,4.7952,4.8012,4.8014,4.8084,4.8082,4.818,4.817,4.8167,4.8163,4.8224,4.8216,4.8433,4.8459,4.8281,4.8283,4.8284,0,4.7656,4.7718,4.7757,4.7793,4.7816,4.7875,4.791,4.7906,4.7943,4.7989,4.8034,4.8091,4.8137,4.8233,4.8246,4.8298,4.8286,4.8358,4.8293,4.8291,4.828,4.8274,4.8277,4.8369,4.8371,4.8373,4.8374,0,4.783,4.7829,4.7882,4.7935,4.7978,4.8019,4.8057,4.8088,4.8087,4.813,4.8191,4.8226,4.8296,4.8351,4.8401,4.8419,4.8395,4.8395,4.8411,4.8411,4.8404,4.8403,4.8195,4.8389,4.8388,4.8386,4.8386,4.8385,4.7953,4.8004,4.8039,4.8097,4.8125,4.8161,4.8209,4.8222,4.8274,4.833,4.8324,4.839,4.8423,4.8486,4.8508,4.8558,4.8532,4.8558,4.8563,4.8568,4.8572,4.8401,4.8568,4.8567,4.8567,4.8567,4.8566,0,4.812,4.8141,4.8194,4.8248,4.8292,4.8269,4.8309,4.8347,4.8405,4.8438,4.8483,4.8551,4.8604,4.8621,4.8671,4.8708,4.8697,4.872,4.8715,4.8718,4.8595,4.8573,4.8727,4.8727,4.8727,4.8727,4.8727,4.8727,4.8212,4.8296,4.83,4.8396,4.8415,4.848,4.8504,4.8535,4.8561,4.8638,4.8682,4.8693,4.8718,4.877,4.8816,4.8819,4.8837,4.8863,4.8861,4.8744,4.8728,4.8712,4.8691,4.8868,4.8869,4.898,4.8981,4.8982]},{"header":{"parameterUnit":"m.s-1","parameterCategory":1,"la1":30.2991,"la2":30.254,"lo1":-89.0895,"lo2":-89.0444,"dy":0.0017,"dx":0.0017,"nx":28,"ny":28,"refTime":"2025-03-21T09:00:00:Z","depth":0,"parameterNumber":3,"parameterNumberName":"V-component_of_WINDS"},"data":[0,0,0,0,0,0,0,0,0,0,0,0,0,0,0,0,0,0,0,0,0,0,0,0,0,0,0,0,0,0,0,0,0,0,0,0,0,0,0,0,0,0,0,0,0,0,0,0,0,0,0,0,0,0,0,0,0,0,3.6563,3.6564,0,3.6664,3.6665,3.6666,3.6628,3.6626,3.6624,3.6621,3.6725,3.673,3.6735,0,0,0,0,0,0,0,0,0,0,0,0,0,3.6335,3.6339,3.6563,3.6564,3.6565,3.6663,3.6665,3.6666,3.6629,3.6626,3.6623,3.662,3.6723,3.6729,3.6735,0,0,0,0,0,0,0,0,0,0,0,0,0,3.6435,3.6341,3.6562,3.6558,3.6559,3.6663,3.6665,3.6666,3.6629,3.6626,3.6622,3.6619,3.6721,3.6729,3.6736,3.685,0,0,3.6758,3.6762,0,0,0,0,0,0,0,0,3.6429,3.6443,3.6558,3.6559,3.656,3.663,3.6622,3.6728,3.663,3.6603,3.6621,3.6617,3.6696,3.6705,3.6732,3.6855,3.6859,3.6759,3.6763,3.6767,3.6769,0,0,0,0,0,0,0,3.6422,3.6438,3.6602,3.6559,3.6561,3.655,3.6561,3.6642,3.6667,3.6605,3.6602,3.6615,3.6696,3.6725,3.6734,3.6861,3.6759,3.6765,3.677,3.6773,3.7078,3.7082,0,0,0,0,0,0,3.6415,3.6433,3.6599,3.6605,3.6484,3.6557,3.6569,3.6611,3.6666,3.6672,3.6617,3.6612,3.6714,3.6725,3.6737,3.6872,3.6767,3.6773,3.6778,3.7075,3.7079,3.7083,0,0,0,0,0,0,3.641,3.643,3.6595,3.6519,3.6539,3.6565,3.6612,3.6615,3.6643,3.6676,3.668,3.6642,3.6712,3.6727,3.6821,3.6875,3.6777,3.6783,3.707,3.7076,3.7081,3.7144,0,0,0,0,0,0,3.6404,3.6429,3.6473,3.652,3.6543,3.6679,3.6616,3.6619,3.6656,3.6651,3.6701,3.6706,3.671,3.6811,3.6829,3.6884,3.6789,3.7066,3.7073,3.7079,3.7137,3.7151,3.7163,0,0,0,0,0,3.6396,3.6488,3.6476,3.6496,3.6599,3.6682,3.6695,3.6698,3.6661,3.6705,3.6725,3.6704,3.6866,3.6821,3.6841,3.6899,3.7062,3.7071,3.7079,3.7132,3.7148,3.7163,0,0,0,0,0,0,3.6449,3.6494,3.6481,3.6591,3.6633,3.6675,3.6732,3.6717,3.677,3.6763,3.6764,3.6776,3.6872,3.6895,3.6843,3.701,3.6958,3.6971,3.6992,3.7008,3.7021,3.7013,3.6795,0,0,0,0,0,3.6473,3.6536,3.6573,3.6666,3.6687,3.6706,3.6742,3.6741,3.6784,3.6801,3.6829,3.6871,3.6931,3.6971,3.7028,3.714,3.7149,3.719,3.7202,3.7213,3.7224,3.7281,3.7298,3.7111,3.7111,3.711,0,0,3.6524,3.6557,3.6597,3.6677,3.6709,3.6774,3.6721,3.6793,3.684,3.6812,3.6902,3.6923,3.697,3.7073,3.712,3.7095,3.7277,3.7223,3.7231,3.7237,3.7291,3.7309,3.7325,3.7116,3.7115,3.7114,0,0,3.665,3.6682,3.6761,3.6794,3.6842,3.6853,3.6872,3.6916,3.6929,3.7019,3.6998,3.7054,3.7159,3.7192,3.7223,3.7356,3.7338,3.7375,3.7442,3.7498,3.7512,3.7526,3.7571,3.7587,3.7386,3.7386,3.7386,0,3.6707,3.6804,3.6805,3.6876,3.6911,3.6888,3.6967,3.6998,3.7063,3.7087,3.7058,3.7186,3.7217,3.7325,3.7357,3.7384,3.7403,3.737,3.751,3.7523,3.7536,3.7579,3.7596,3.739,3.739,3.7389,3.7389,0,3.6871,3.6938,3.6996,3.7058,3.7099,3.7175,3.7185,3.7227,3.7221,3.7234,3.7324,3.7359,3.7421,3.7447,3.7443,3.7554,3.7537,3.7509,3.7458,3.7558,3.7598,3.7615,3.7396,3.7394,3.7393,3.7392,0,0,3.7035,3.7093,3.7114,3.714,3.719,3.7241,3.7314,3.7374,3.7408,3.7453,3.7513,3.76,3.7574,3.7608,3.7607,3.7656,3.7756,3.7622,3.7623,3.7644,3.7877,3.7896,3.7916,3.7744,3.7747,3.775,3.7872,0,3.7163,3.7291,3.7291,3.7409,3.7469,3.7446,3.7509,3.7545,3.7559,3.7611,3.7626,3.7686,3.7649,3.7669,3.7716,3.7734,3.7803,3.7725,3.7798,3.7801,3.7786,3.7937,3.7959,3.8073,3.7888,3.7891,3.7893,0,3.733,3.7378,3.7501,3.7538,3.7563,3.762,3.7673,3.7724,3.7764,3.777,3.7807,3.7797,3.7869,3.7815,3.7913,3.786,3.789,3.7902,3.7907,3.7913,3.7853,3.7946,3.811,3.8127,3.7919,3.7917,3.7915,0,3.7434,3.7529,3.7614,3.7638,3.7684,3.7724,3.7745,3.7781,3.7816,3.7862,3.7884,3.7939,3.7968,3.801,3.8014,3.7975,3.8112,3.8059,3.8117,3.8117,3.8147,3.8145,3.8317,3.8168,3.8168,3.8168,3.8168,0,3.7576,3.7652,3.7661,3.7714,3.7796,3.7796,3.7877,3.7895,3.7927,3.7981,3.7964,3.8015,3.8018,3.807,3.8073,3.8152,3.8166,3.8172,3.8172,3.8173,3.8172,3.8192,3.8183,3.8172,3.8171,3.8171,3.817,0,3.7707,3.7717,3.7807,3.7842,3.7853,3.7912,3.7942,3.7991,3.8001,3.8069,3.8085,3.8102,3.8162,3.817,3.824,3.8242,3.8336,3.8329,3.8323,3.8321,3.8379,3.8372,3.8568,3.8593,3.843,3.8431,3.8433,0,3.7797,3.7854,3.7894,3.7929,3.7951,3.8008,3.8042,3.8043,3.8079,3.8126,3.8169,3.8226,3.8272,3.8368,3.8386,3.8438,3.8431,3.8496,3.8439,3.8437,3.8429,3.8425,3.843,3.8507,3.8508,3.851,3.8511,0,3.7954,3.7955,3.8005,3.8056,3.8098,3.8138,3.8177,3.8206,3.821,3.8252,3.8312,3.8347,3.8417,3.8473,3.8525,3.8545,3.8528,3.8529,3.8544,3.8546,3.8539,3.8541,3.8351,3.8524,3.8523,3.8522,3.8521,3.8521,3.8066,3.8114,3.8149,3.8204,3.8232,3.8268,3.8314,3.8329,3.8379,3.8436,3.8433,3.8498,3.8532,3.8599,3.8623,3.8673,3.8652,3.8675,3.8681,3.8687,3.8691,3.8532,3.8683,3.8682,3.8682,3.8682,3.8681,0,3.822,3.824,3.8292,3.8344,3.8387,3.8367,3.8407,3.8444,3.8501,3.8535,3.8579,3.8646,3.87,3.8721,3.8773,3.8809,3.8802,3.8822,3.8819,3.8824,3.8709,3.8689,3.8827,3.8827,3.8827,3.8827,3.8826,3.8826,3.8305,3.8385,3.8389,3.8481,3.8501,3.8564,3.8589,3.862,3.8646,3.8721,3.8766,3.8778,3.8806,3.8859,3.8907,3.8911,3.893,3.8954,3.8955,3.8847,3.8832,3.8818,3.8799,3.8958,3.8958,3.9065,3.9066,3.9067]}]]